Location: *
(38.4303°S, 157.0822°W)
Time: 15:31:57
(UTC+00:00)

SL-16 R/B - Pass Details

Date: 21 May 2024
Orbit: 842 x 845 km, 71.0° (Epoch: 22 June)

Event Time Altitude Azimuth Distance (km) Brightness Sun altitude
Exits shadow 16:12:41 21° 268° (W) 1,821 3.3 -14.8°
Maximum altitude 16:14:42 26° 237° (WSW) 1,636 3.1 -14.4°
Drops below altitude 10° 16:19:25 10° 181° (S) 2,494 4.5 -13.6°
Sets 16:22:19 0° 168° (SSE) 3,435 5.3 -13.0°
